Regional Weather Roundup
Issued by NWS

Home | Current Version | Previous Version | Text Only | Print | Product List | Glossary On
Versions: 1 2 3 4 5 6 7 8 9 10 11 12 13 14 15 16 17 18 19 20 21 22 23 24 25 26 27 28 29 30 31 32 33 34 35 36 37 38 39 40 41 42 43 44 45 46 47 48 49 50
000
ASUS43 KLMK 240102
RWRKY
KENTUCKY REGIONAL WEATHER ROUNDUP
NATIONAL WEATHER SERVICE LOUISVILLE KY
900 PM EDT SUN JUL 23 2017

NOTE "FAIR" INDICATES FEW OR NO CLOUDS BELOW 12,000 FEET
WITH NO SIGNIFICANT WEATHER AND/OR OBSTRUCTIONS TO VISIBILITY.

KYZ001>023-026-027-061>063-070>075-240200-
WESTERN AND SOUTH CENTRAL KENTUCKY

CITY           SKY/WX    TMP DP  RH WIND       PRES   REMARKS
PADUCAH        CLEAR     84  71  65 CALM      29.84R
HENDERSON      PTCLDY    80  74  81 CALM      29.85R
OWENSBORO      PTCLDY    83  73  72 W3        29.85R
HOPKINSVILLE   PTCLDY    86  75  68 W5        29.84S HX  94
BOWLING GREEN  PTCLDY    85  74  69 NE6       29.85R HX  92
GLASGOW        NOT AVBL
$$

KYZ024-025-028>034-038-045-046-053-240200-
NORTH CENTRAL KENTUCKY

CITY           SKY/WX    TMP DP  RH WIND       PRES   REMARKS
LOUISVILLE/SDF PTCLDY    83  72  69 W8        29.82R
LOUISVILLE/LOU CLEAR     82  72  71 NW6       29.82S
FORT KNOX      CLEAR     78  71  78 W6        29.84R
$$

KYZ035>037-039>044-047>052-055>060-089>105-240200-
NORTHEAST KENTUCKY

CITY           SKY/WX    TMP DP  RH WIND       PRES   REMARKS
LEXINGTON      CLEAR     79  71  76 W7        29.85R
COVINGTON      CLOUDY    75  70  84 W10       29.81S
FRANKFORT      PTCLDY    79  68  69 W3        29.83R
$$

KYZ054-064>069-076>088-106>120-240200-
SOUTHEAST KENTUCKY

CITY           SKY/WX    TMP DP  RH WIND       PRES   REMARKS
JACKSON        PTCLDY    80  70  71 NW6       29.84R
LONDON         MOCLDY    83  70  64 NW6       29.85R
SOMERSET       MOCLDY    81  70  69 W8        29.87R
MIDDLESBORO    TSTM      74  65  74 S9G26     29.87R
MONTICELLO     MOCLDY    74  72  93 VRB6      29.89R
$$




USA.gov is the U.S. government's official web portal to all federal, state and local government web resources and services.